sat.trackr.live / text

‹ back to catalog

STARLINK-5071

NORAD 55402 · 2023-014M

PAYLOAD ACTIVE UNKNOWN

§ Identity

Operator
Country
US
Launch date
2023-01-31
Launch site
AFWTR
Launch vehicle
Mass (kg)
RCS (m²)

Purposes: comms

External: N2YO · Heavens-Above · Gunter

§ Orbital elements

Epoch: 2026-05-24T15:52:07.122720Z

Period
96.11 min
Inclination
69.9992°
Eccentricity
0.0003100
Mean motion
14.98331545 rev/d
Perigee alt
569.9 km
Apogee alt
574.2 km
Semi-major
6,950.2 km
B*
1.4488e-5
RAAN
232.9647°
Arg perigee
265.9257°
Mean anomaly
94.1548°
Rev number
18,343

§ Raw data

STARLINK-50711 55402U 23014M   26144.66119355  .00000080  00000+0  14488-4 0  99952 55402  69.9992 232.9647 0003100 265.9257  94.1548 14.98331545183438

JSON: /api/v1/satellites/55402 · /tle

For live sub-satellite position, see the globe view (requires WebGL).

§ Visibility from observer

Set your observer location to see the next 7 days of passes ≥ 10°. The values pass through the URL so the page stays shareable.

No JS? Fill the form by hand. The geolocation button needs JavaScript.